Torna al catalogo

STARLINK-3073

AttivoComunicazioniVLEO
NORAD 49135·PAYLOAD·🇺🇸 United States

Lanciato Sep 14, 2021 da Vandenberg Space Force Base

Loading…

Prossimi Passaggi (prossime 24 ore)

TLE

AggiornatoSource: CelesTrak SupGP

Epoca: Sep 14, 2026, 20:48 UTC

1 49135C 21082F   26257.86715278 -.00039677  00000+0 -33247-2 0  2572
2 49135  70.0003 137.4563 0002974 266.5680 350.7098 14.98355143    14

Traccia STARLINK-3073 in tempo reale con AllMySat

Download on the App Store